DIAMANT R/B, 2671

Orbit data source: Space-Track

DIAMANT R/B, 2671 is space debris in LEO originally from a launch on Wed, 08 Feb 1967 UTC launched from the Hamma Guira Space Track Range (HGSTR). Debris objects in space refer to the collection of defunct objects orbiting the Earth. Examples of debris include non-operational satellites, rocket bodies, and fragments generated from explosions, collisions, or faulty payload assembly.

Loading next visibility...
Identifier
2671, 1967-011B
Orbit
LEO
Last TLE update
4 hours ago
Origin
Manufacturer
Sud
Mission
Spacecraft
Bus & Motor
RUBIS, Unknown motor
Mass
65 kg wet, 65 kg dry
Launch date (UTC)
1967-02-08 (58 years ago)
Launch vehicle
Unknown
Launch site
Hamma Guira Space Track Range (HGSTR)
Object type
Payload
Rocket body
Debris
Shape & HBR
Cyl, 2.1 m
Radar Cross Section
1.347 m², Large (>1 m²)

Expand to show TLE details & history

TLE from 4 hours ago
0 DIAMANT R/B
1  2671U 67011B   25182.18170184  .00000424  00000-0  10229-3 0  9996
2  2671  39.9463 143.3934 0338532 241.8976 114.7186 14.33040358  5701
Epoch: 2025-07-01T04:21Z
TLE epoch observation values (Epoch: 2025-07-01T04:21:39.038Z)
Latitude
-0.00003°
Longitude
158.49986°
Altitude
889.004 km
Speed
7.354 km/s
True Right ascension
09h 33m 34s
True Declination
0° 00' 00"
Sunlit
Object was in daylight at epoch
Visualization orbit readout
Latitude
6.83973°
Longitude
-30.57722°
Altitude
705.009 km
Speed
7.545 km/s
Apparent Right ascension
22h 34m 21s
Apparent Declination
-52° 45' 48"
Sunlit
Object is in full shadow
Visualization observer readout
Local Sidereal Time
20:09:40
Azimuth
158.87° S
Elevation
-7.828°
Doppler factor
1
Orbital elements
Apogee altitude
1,026.402 km
Perigee altitude
541.483 km
Semi-major axis
7,162.08 km
Eccentricity
0.03385
Inclination
39.9463°
RAAN
143.3934°
Arg. of periapsis
241.8976°
True anomaly
Unknown
Mean anomaly
114.7186°
Eccentric anomaly
Unknown
Mean motion
3.58084 °/min
Orbital period
100.54 mins
BSTAR
0.00010229
Loading maneuver chart data...
Loading SW <> Apogee altitude chart data...

DIAMANT R/B Visibility forecast

Observer location: undefined°, undefined°

Span
Click to sort rows by Start time (UTC) header in descending order
Start Az.
Max El. time (UTC)
Max El. Az.
Max El.
End time (UTC)
End Az.
6 mins2025-07-01 22:54:32.422Z165.853° S2025-07-01 22:57:32.422Z138.253° SSE13.819°2025-07-01 23:00:32.422Z110.744° ESE
10 mins2025-07-02 00:38:32.422Z214.104° SW2025-07-02 00:42:32.422Z162.753° S34.73°2025-07-02 00:48:32.422Z85.403° E
12 mins2025-07-02 02:23:32.422Z255.032° W2025-07-02 02:29:32.422Z116.937° SE44.374°2025-07-02 02:35:32.422Z82.901° E
11 mins2025-07-02 04:10:32.422Z275.133° WNW2025-07-02 04:15:32.422Z215.28° SW44.945°2025-07-02 04:21:32.422Z99.588° ESE
10 mins2025-07-02 05:56:32.422Z275.311° WNW2025-07-02 06:01:32.422Z211.863° SW37.4°2025-07-02 06:06:32.422Z135.425° SSE
5 mins2025-07-02 07:44:32.422Z247.839° W2025-07-02 07:46:32.422Z226.873° WSW15.215°2025-07-02 07:49:32.422Z193.312° SSW
|